STARLINK-32474, 61260

Orbit data source: Space-Track

STARLINK-32474, 61260 is a payload satellite owned by SpaceX/Seattle (US) in LEO that was launched on Wed, 25 Sep 2024 UTC via an FALCON 9 launch vehicle from the Air Force Western Test Range (AFWTR). Payload-class satellites include a variety of spacecraft equipped with specific instruments for various scientific and technological missions. These include communications satellites like Starlink; space stations such as the ISS; scientific satellites like the Hubble; Earth observation satellites from companies like Planet Labs, Umbra, and HawkEye 360; GPS; miniature CubeSats for education and research; and military/defense satellites.

Loading next visibility...
Identifier
61260, 2024-175T
Orbit
LEO
Country
Flag of USUS
Related business
Manufacturer
SpaceX/Seattle
Mission
Operational Commercial Communications
Bus & Motor
STARLINK V2M, Unknown motor
Mass
730 kg wet, ~700 kg dry
Launch date (UTC)
2024-09-25 (1 year ago)
Launch vehicle
FALCON 9
Launch site
Air Force Western Test Range (AFWTR)
Object type
Payload
Rocket body
Debris
Shape & HBR
Box + 2 Pan, 17.7 m
Radar Cross Section
33.884 m², Large (>1 m²)

Expand to show TLE details & history
Last TLE update: 6 hours ago

TLE from 6 hours ago
0 STARLINK-32474
1 61260U 24175T   25290.97096291 -.00004029  00000-0 -12388-3 0  9997
2 61260  53.1590 136.8851 0001190  95.9529 264.1608 15.30221447 59608
Epoch: 2025-10-17T23:18Z
TLE epoch observation values (Epoch: 2025-10-17T23:18:11.195Z)
Latitude
0.00003°
Longitude
120.62979°
Altitude
476.134 km
Speed
7.629 km/s
True Right ascension
09h 07m 32s
True Declination
0° 00' 00"
Sunlit
Object was in daylight at epoch
Visualization orbit readout
Latitude
Unknown
Longitude
Unknown
Altitude
Unknown
Speed
Unknown
Apparent Right ascension
Unknown
Apparent Declination
Unknown
Sunlit
N/A
Visualization observer readout
Local Sidereal Time
23:58:17
Azimuth
Unknown
Elevation
Unknown
Doppler factor
Unknown
Orbital elements
Apogee altitude
476.223 km
Perigee altitude
474.592 km
Semi-major axis
6,853.545 km
Eccentricity
0.00012
Inclination
53.159°
RAAN
136.8851°
Arg. of periapsis
95.9529°
True anomaly
264.14723°
Mean anomaly
264.1608°
Eccentric anomaly
264.15402°
Mean motion
3.82534 °/min
Orbital period
94.11 mins
BSTAR
-0.00012388
Loading maneuver chart data...
Computing Atmospheric mass density...
Loading historical data...
Loading historical data...
Loading historical data...
Loading historical data...
Loading historical data...
Loading historical data...
Loading historical data...

Documentation

Showing up to 5 results
|